Location: Banios
(43.0451°N, 0.2335°E)
Time: 08:14:06
(UTC+00:00)

A-11 Canister half - Pass Details

Date: 17 May 2021
Orbit: 1527 x 1681 km, 47.3° (Epoch: 22 June)

Event Time Altitude Azimuth Distance (km) Brightness Sun altitude
Rises 07:37:51 0° 227° (SW) 4,686 11.2 31.6°
Reaches altitude 10° 07:40:53 10° 224° (SW) 3,718 10.8 32.2°
Maximum altitude 07:50:08 65° 146° (SE) 1,707 10.2 33.9°
Drops below altitude 10° 07:59:44 10° 67° (ENE) 3,842 12.1 35.6°
Sets 08:02:55 0° 65° (ENE) 4,851 12.3 36.2°
